This is the latest recevied weather packets stored in our database for station/object W7PLC. If no packets are shown the sender has not sent any weather packets the latest 10 day(s).
| Time | Temp. | Humidity | Pressure | Rain* | Wind** | Luminosity | Snow |
|---|---|---|---|---|---|---|---|
| 1777734114 | 10.56° C | 96% | 1015.2 hPa | 0 mm | - | 46 W/m² | - |
| 1777733811 | 10.56° C | 96% | 1015.4 hPa | 0 mm | - | 47 W/m² | - |
| 1777733508 | 10.56° C | 96% | 1015.3 hPa | 0 mm | - | 37 W/m² | - |
| 1777733204 | 10.56° C | 97% | 1015.4 hPa | 0 mm | - | 36 W/m² | - |
| 1777732901 | 10.56° C | 98% | 1015.1 hPa | 0 mm | - | 38 W/m² | - |
| 1777732597 | 10° C | 98% | 1015.3 hPa | 0 mm | - | 37 W/m² | - |
| 1777732295 | 10° C | 98% | 1015.1 hPa | 0 mm | - | 22 W/m² | - |
| 1777731992 | 10° C | 97% | 1015.1 hPa | 0 mm | - | 15 W/m² | - |
| 1777731688 | 10° C | 97% | 1015.2 hPa | 0 mm | - | 13 W/m² | - |
| 1777731386 | 10° C | 98% | 1015.1 hPa | 0 mm | - | 12 W/m² | - |
| 1777731084 | 10° C | 98% | 1015.1 hPa | 0 mm | - | 8 W/m² | - |
| 1777730782 | 10° C | 97% | 1015 hPa | 0 mm | - | 8 W/m² | - |
| 1777730478 | 10° C | 97% | 1015.1 hPa | 0 mm | - | 6 W/m² | - |
| 1777730174 | 10° C | 97% | 1015.2 hPa | 0 mm | - | 7 W/m² | - |
| 1777729871 | 10° C | 97% | 1015.2 hPa | 0 mm | - | 6 W/m² | - |
| 1777729568 | 10° C | 98% | 1015.1 hPa | 0 mm | - | 6 W/m² | - |
| 1777729264 | 10° C | 98% | 1015.1 hPa | 0 mm | - | 5 W/m² | - |
| 1777728961 | 10° C | 98% | 1015 hPa | 0 mm | - | 4 W/m² | - |
| 1777728658 | 10° C | 97% | 1015 hPa | 0 mm | - | 3 W/m² | - |
| 1777728355 | 10° C | 97% | 1014.8 hPa | 0 mm | - | 2 W/m² | - |
| 1777728052 | 10° C | 97% | 1015 hPa | 0 mm | - | 0 W/m² | - |
| 1777727748 | 10° C | 97% | 1014.8 hPa | 0 mm | - | 0 W/m² | - |
| 1777727445 | 10° C | 98% | 1014.6 hPa | 0 mm | - | 0 W/m² | - |
| 1777727143 | 10° C | 98% | 1014.9 hPa | 0 mm | - | 0 W/m² | - |
| 1777726841 | 10° C | 98% | 1014.8 hPa | 0 mm | - | 0 W/m² | - |
* Rain latest hour (hover to see other rain measurements)
** Current wind speed in m/s (hover to see current wind gust speed)